Ft Riley, KS

1:23 PM CDT on August 20, 2017 (GMT -0500)
Marshall Army Air Field

Weather History for KFRI - May, 2014

Change the Weather History Date:

Sunday, May 25, 2014

  Actual Average (KMHK) Record (KMHK)
Temperature  
Mean Temperature 74 °F -  
Max Temperature 83 °F 77 °F 93 °F (2006)
Min Temperature 65 °F 51 °F 42 °F (2002)
Cooling Degree Days 8    
Growing Degree Days 24 (Base 50)    
Moisture  
Dew Point 67 °F    
Average Humidity 84    
Maximum Humidity 100    
Minimum Humidity 60    
Precipitation  
Precipitation 0.15 in - - ()
Sea Level Pressure  
Sea Level Pressure 29.95 in    
Wind  
Wind Speed 7 mph (South)    
Max Wind Speed 20 mph    
Max Gust Speed 30 mph    
Visibility 10 miles    
Events Rain , Thunderstorm    
Averages and records for this station are not official NWS values.
T = Trace of Precipitation, MM = Missing Value Source: NWS Daily Summary

Daily Weather History Graph

Daily Weather History Graph

Search for Another Location

Airport or City:

Trip Planner

Search our weather history database for the weather conditions in past years. The results will help you decide how hot, cold, wet, or windy it might be!

Date:

Astronomy

May. 25, 2014 Rise Set
Actual Time 6:06 AM CDT 8:41 PM CDT
Civil Twilight 5:35 AM CDT 9:12 PM CDT
Nautical Twilight 4:57 AM CDT 9:51 PM CDT
Astronomical Twilight 4:14 AM CDT 10:34 PM CDT
Moon 4:10 AM CDT (5/25) 5:45 PM CDT (5/25)
Length of Visible Light 15h 37m
Length of Day
14h 35m
Waning Crescent, 10% of the Moon is Illuminated
May 25
Waning Crescent
May 28
New
Jun 5
First Quarter
Jun 12
Full
Jun 19
Last Quarter

Hourly Weather History & Observations

Time (CDT) Temp. Heat Index Dew Point Humidity Pressure Visibility Wind Dir Wind Speed Gust Speed Precip Events Conditions
12:58 AM 67.3 °F - 67.3 °F 100% 29.95 in 10.0 mi NE 3.5 mph - N/A   Partly Cloudy
1:32 AM 68.0 °F - 68.0 °F 100% 29.96 in 10.0 mi SE 5.8 mph - N/A   Light Drizzle
1:36 AM 68.0 °F - 68.0 °F 100% 29.97 in 10.0 mi ESE 4.6 mph - N/A   Scattered Clouds
1:58 AM 67.3 °F - 67.3 °F 100% 29.95 in 10.0 mi South 4.6 mph - 0.00 in   Partly Cloudy
2:23 AM 68.0 °F - 68.0 °F 100% 29.97 in 10.0 mi SSE 10.4 mph - N/A   Light Drizzle
2:47 AM 68.0 °F - 68.0 °F 100% 29.97 in 10.0 mi South 10.4 mph - N/A   Partly Cloudy
2:51 AM 68.0 °F - 68.0 °F 100% 29.97 in 10.0 mi South 8.1 mph - N/A   Light Drizzle
2:56 AM 68.0 °F - 68.0 °F 100% 29.97 in 10.0 mi South 5.8 mph - N/A   Scattered Clouds
2:58 AM 68.0 °F - 68.0 °F 100% 29.95 in 10.0 mi South 6.9 mph - 0.00 in   Mostly Cloudy
3:58 AM 67.8 °F - 67.8 °F 100% 29.94 in 10.0 mi SSW 1.2 mph - N/A   Mostly Cloudy
4:58 AM 66.7 °F - 66.7 °F 100% 29.95 in 10.0 mi SE 3.5 mph - N/A   Overcast
5:33 AM 66.2 °F - 66.2 °F 100% 29.98 in 10.0 mi East 2.3 mph - N/A   Light Drizzle
5:38 AM 66.2 °F - 66.2 °F 100% 29.98 in 10.0 mi ESE 3.5 mph - N/A   Overcast
5:58 AM 65.8 °F - 65.8 °F 100% 29.96 in 10.0 mi SE 3.5 mph - 0.00 in   Overcast
6:58 AM 66.4 °F - 66.4 °F 100% 29.96 in 10.0 mi Calm Calm - N/A   Partly Cloudy
7:40 AM 68.0 °F - 68.0 °F 100% 29.98 in 10.0 mi East 2.3 mph - N/A   Light Drizzle
7:58 AM 68.5 °F - 68.5 °F 100% 29.96 in 10.0 mi SE 3.5 mph - 0.00 in   Light Drizzle
8:03 AM 68.0 °F - 68.0 °F 100% 29.98 in 10.0 mi SSE 3.5 mph - N/A   Mostly Cloudy
8:17 AM 69.8 °F - 68.0 °F 94% 29.98 in 10.0 mi Variable 1.2 mph - N/A   Light Drizzle
8:56 AM 73.4 °F - 68.0 °F 83% 29.99 in 10.0 mi SSE 10.4 mph - N/A   Partly Cloudy
8:58 AM 73.4 °F - 68.0 °F 83% 29.96 in 10.0 mi SSE 11.5 mph - 0.00 in   Partly Cloudy
10:58 AM 79.3 °F - 68.4 °F 69% 29.95 in 10.0 mi South 16.1 mph - N/A   Scattered Clouds
11:05 AM 78.8 °F - 68.0 °F 69% 29.99 in 10.0 mi SSW 17.3 mph - N/A Rain Light Rain
11:25 AM 77.0 °F - 68.0 °F 74% 29.99 in 10.0 mi SSW 17.3 mph 25.3 mph N/A Rain Light Rain
11:58 AM 78.6 °F - 69.1 °F 72% 29.96 in 10.0 mi SSW 17.3 mph 20.7 mph 0.00 in Rain Light Rain
12:18 PM 77.0 °F - 71.6 °F 83% 29.99 in 10.0 mi SW 10.4 mph - N/A Rain Light Rain
12:19 PM 77.0 °F - 71.6 °F 83% 29.99 in 10.0 mi SSW 12.7 mph - N/A   Mostly Cloudy
12:22 PM 77.0 °F - 69.8 °F 78% 29.99 in 10.0 mi SW 15.0 mph - N/A Rain Light Rain
12:28 PM 77.0 °F - 69.8 °F 78% 29.99 in 10.0 mi SW 16.1 mph 19.6 mph N/A Rain , Thunderstorm Light Thunderstorms and Rain
12:38 PM 71.6 °F - 68.0 °F 88% 30.00 in 1.2 mi SW 19.6 mph 29.9 mph N/A Rain , Thunderstorm Light Thunderstorms and Rain
12:43 PM 69.8 °F - 66.2 °F 88% 30.00 in 1.2 mi South 9.2 mph 29.9 mph N/A Rain , Thunderstorm Light Thunderstorms and Rain
12:48 PM 69.8 °F - 68.0 °F 94% 29.99 in 4.0 mi South 6.9 mph - N/A Rain , Thunderstorm Light Thunderstorms and Rain
12:58 PM 69.4 °F - 66.2 °F 89% 29.96 in 4.0 mi South 4.6 mph - 0.15 in Rain , Thunderstorm Light Thunderstorms and Rain
1:07 PM 69.8 °F - 68.0 °F 94% 29.98 in 10.0 mi South 4.6 mph - N/A Thunderstorm Scattered Clouds
1:12 PM 71.6 °F - 68.0 °F 88% 29.98 in 10.0 mi Variable 2.3 mph - N/A Thunderstorm Light Drizzle
1:28 PM 73.4 °F - 68.0 °F 83% 29.96 in 10.0 mi Variable 1.2 mph - N/A   Scattered Clouds
1:51 PM 77.0 °F - 69.8 °F 78% 29.94 in 10.0 mi SSW 5.8 mph - N/A Rain Light Rain
1:58 PM 77.2 °F - 70.3 °F 79% 29.91 in 10.0 mi South 5.8 mph - 0.00 in Rain Light Rain
2:00 PM 77.0 °F - 69.8 °F 78% 29.94 in 10.0 mi South 8.1 mph - N/A   Scattered Clouds
2:21 PM 78.8 °F - 68.0 °F 69% 29.93 in 10.0 mi SSE 6.9 mph - N/A Rain Light Rain
2:58 PM 80.1 °F 82.4 °F 67.3 °F 65% 29.90 in 10.0 mi SE 8.1 mph - 0.00 in Rain Light Rain
3:07 PM 80.6 °F 83.2 °F 68.0 °F 65% 29.93 in 10.0 mi SSE 9.2 mph - N/A   Scattered Clouds
3:58 PM 82.6 °F 85.3 °F 67.5 °F 60% 29.88 in 10.0 mi SE 11.5 mph - 0.00 in   Clear
4:58 PM 81.5 °F 84.1 °F 67.5 °F 62% 29.86 in 10.0 mi SE 10.4 mph - N/A   Scattered Clouds
5:58 PM 79.7 °F - 68.0 °F 67% 29.86 in 10.0 mi SSE 12.7 mph - N/A   Partly Cloudy
6:06 PM 78.8 °F - 68.0 °F 69% 29.89 in 10.0 mi SSE 17.3 mph 21.9 mph N/A Rain Light Rain
6:28 PM 77.0 °F - 68.0 °F 74% 29.89 in 10.0 mi SSE 15.0 mph - N/A   Partly Cloudy
6:58 PM 78.1 °F - 68.5 °F 72% 29.87 in 10.0 mi South 11.5 mph 20.7 mph 0.00 in   Partly Cloudy
7:18 PM 77.0 °F - 68.0 °F 74% 29.89 in 10.0 mi South 13.8 mph - N/A Rain Light Rain
7:58 PM 73.9 °F - 63.1 °F 69% 29.92 in 10.0 mi SSW 15.0 mph - 0.00 in Rain Light Rain
8:02 PM 73.4 °F - 62.6 °F 69% 29.94 in 10.0 mi South 12.7 mph - N/A   Mostly Cloudy
8:31 PM 71.6 °F - 62.6 °F 73% 29.94 in 10.0 mi South 10.4 mph - N/A Rain Light Rain
8:56 PM 69.8 °F - 62.6 °F 78% 29.94 in 10.0 mi SSW 6.9 mph - N/A   Mostly Cloudy
8:58 PM 69.8 °F - 62.6 °F 78% 29.92 in 10.0 mi SW 6.9 mph - 0.00 in   Mostly Cloudy
9:26 PM 69.8 °F - 62.6 °F 78% 29.96 in 10.0 mi SSW 3.5 mph - N/A Rain Light Rain
9:58 PM 68.7 °F - 61.5 °F 78% 29.96 in 10.0 mi SW 6.9 mph - 0.00 in Rain Light Rain
10:21 PM 68.0 °F - 62.6 °F 83% 29.98 in 10.0 mi SSE 5.8 mph - N/A   Scattered Clouds
10:58 PM 67.5 °F - 62.2 °F 83% 29.96 in 10.0 mi Variable 2.3 mph - 0.00 in   Mostly Cloudy
11:58 PM 66.9 °F - 62.6 °F 86% 29.94 in 10.0 mi SE 9.2 mph - N/A   Mostly Cloudy